パンスターズ彗星

C/2019 A5 ( PanSTARRS )

English version
Home page
Updated on May 24, 2020

---------------------------------------------------------------------

・ プロフィール

発見日 2019年1月4日
発見光度 20.4等
発見者 Pan-STARRS 1 telescope (Haleakala)

・ 写真集

・ 軌道要素

Epoch 2019 June 6.0 TT = JDT 2458640.5
T 2019 June  9.47091 TT                                 Rudenko
q   6.3241624            (2000.0)            P               Q
n   0.00978158     Peri.  356.04174     -0.81852956     -0.26737072
a  21.6536036      Node   146.61933     +0.54917601     -0.62390962
e   0.7079395      Incl.   67.53629     +0.16856769     +0.73433622
P 101
From 59 observations 2019 Jan. 4-2020 May 20, mean residual 0".3.

・ 光度変化

        m1 = 9.0 + 5 logΔ + 10.0 log r

---------------------------------------------------------------------

軌道要素はM.P.E.C. 2020-K117に掲載されたものです。
光度グラフはComet for Windowsで作成したものです。

---------------------------------------------------------------------

Copyright(C) Seiichi Yoshida (comet@aerith.net). All rights reserved.